Airfield :
LOGIN :

Register | Disclaimer

   EN    FR    IT 

 










Legend :    VFR   Marginal VFR   IFR   Intensive IFR   Very Intensive IFR
Visi :
Ceiling :
>= 8 km
>= 3000ft
5 to 8 km
1000 to 3000 ft
1500m to 5 km
500 to 1000 ft
800 to 1500m
200 to 500 ft
< 800m
< 200 ft
Symbols :   Thunderstorms  Fog  Heavy snow  Heavy precipitations  Wind > 20 kt
SIGMETs :     Misc.  Thunderstorms  Icing  Turbulence  Mountain Waves  Volcanic Ashes







- Airport Elevation : 49 ft
- IATA code : AOI


LIPY - Ancona Falconara

CURRENT METAR :
  • 181450Z 34006KT 300V010 3000 -RA BR SCT004 BKN012 08/08 Q1013

EXPIRED METARs :
  • 181350Z 32004KT 290V360 2000 -RA BR SCT003 BKN012 08/08 Q1013
  • 181250Z 33005KT 290V040 1500 -RA BR SCT003 BKN015 08/08 Q1012

TAF TAF LIPY
Valid from the 18 at 12:00 until the 19 at 12:00 UTC


181100Z 1812/1912 02012KT 6000 SCT020
TEMPO 1812/1821 4000 RA
BECMG 1816/1818 10010KT
TEMPO 1903/1912 4000 TSRA
No reported NOTAMs for that airfield.



MET'MAP, your aeronautical weather chart ! - Copyright ORBIFLY December 2007 - Disclaimer

ORBIFLY MET'MAP TEAM :

Programming & Development : Alexandra Zaïnal
Concept & Development : Baudouin d'Aumeries
Co-Development & Prog : Marc-Olivier Méhu
Technical & hardware support : Manuel Goepfert

Contact : metmap@orbifly.com




SOURCES & CREDITS :

   NOAA